Home > Weather > Jan Mayen > Past weeks

Flag for Norway Weather for the Past 2 Weeks in Jan Mayen, Jan Mayen, Norway

Now
17 °F

Cold.


Feels Like: 2 °F
Forecast: 20 / 33 °F
Wind: 15 mph from Northwest

Location: Jan Mayen

Current Time: Feb 14, 2016 at 5:43:36 AM

Latest Report: Feb 14, 2016 at 4:00 AM


Visibility: N/A

Pressure: 29.85 "Hg

Humidity: 78%

Dew point: 11 °F

Location of Jan MayenLocation

Historic Weather in Jan Mayen — Graph

°F

Jan Mayen Temperature Yesterday

Maximum temperature yesterday: 26 °F (at 4:00 AM)
Minimum temperature yesterday: 18 °F (at 9:00 PM)
Average temperature yesterday: 22 °F

High & Low Weather Summary for the Past Weeks

 TemperatureHumidityPressure
High36 °F (Jan 31, 3:00 PM)98% (Jan 31, 8:00 AM)30.00 "Hg (Jan 31, 8:00 AM)
Low13 °F (Feb 11, 4:00 PM)62% (Feb 7, 2:00 PM)28.64 "Hg (Jan 30, 7:00 AM)
Average26 °F81%29.50 "Hg
* Reported Jan 30 7:00 AM — Feb 14 3:00 AM, Jan Mayen, Weather by CustomWeather, © 2016

Note: Actual official high and low records may vary slightly from our data, if they occured in-between our weather recording intervals... More about our weather records

Advertising

Jan Mayen Weather History for the Previous 24 Hours

 ConditionsComfort  
Time TempWeatherWind HumidityBarometerVisibility
3:00 AM
Sun, Feb 14
17 °FCold.16 mph77%29.85 "HgN/A
2:00 AM17 °FCold.14 mph84%29.85 "HgN/A
1:00 AM18 °FOvercast.12 mph80%29.86 "Hg4 mi
9:00 PM
Sat, Feb 13
18 °FCold.17 mph77%29.82 "HgN/A
8:00 PM19 °FCold.16 mph79%29.80 "HgN/A
7:00 PM19 °FSnow showers. Ice fog.17 mph78%29.79 "Hg1 mi
6:00 PM20 °FCold.16 mph85%29.77 "HgN/A
5:00 PM21 °FCold.17 mph80%29.75 "HgN/A
4:00 PM21 °FOvercast.16 mph84%29.73 "Hg1 mi
3:00 PM22 °FCold.14 mph85%29.72 "HgN/A
1:00 PM24 °FLight snow. Overcast.10 mph91%29.67 "Hg1 mi
12:00 PM24 °FCold.9 mph89%29.65 "HgN/A
11:00 AM23 °FCold.6 mph89%29.64 "HgN/A
10:00 AM24 °FLow clouds.9 mph88%29.61 "Hg1 mi
9:00 AM22 °FCold.8 mph90%29.59 "HgN/A
8:00 AM22 °FCold.9 mph87%29.59 "HgN/A
7:00 AM23 °FLight snow. Overcast.10 mph86%29.57 "Hg1 mi
6:00 AM24 °FCold.9 mph88%29.55 "HgN/A
5:00 AM24 °FCold.12 mph88%29.53 "HgN/A
Weather by CustomWeather, © 2016

See weather overviewHow to use our weather pages